This is the latest recevied weather packets stored in our database for station/object W4FXD. If no packets are shown the sender has not sent any weather packets the latest 10 day(s).
| Time | Temp. | Humidity | Pressure | Rain* | Wind** | Luminosity | Snow |
|---|---|---|---|---|---|---|---|
| 1778104071 | 18.89° C | 99% | 1011.9 hPa | 1.78 mm | - | 27 W/m² | - |
| 1778103768 | 18.89° C | 99% | 1011.8 hPa | 4.83 mm | - | 8 W/m² | - |
| 1778103467 | 18.89° C | 99% | 1011.4 hPa | 3.05 mm | - | 20 W/m² | - |
| 1778103163 | 18.89° C | 99% | 1011.4 hPa | 1.78 mm | - | 79 W/m² | - |
| 1778102860 | 18.89° C | 99% | 1012 hPa | 1.78 mm | - | 23 W/m² | - |
| 1778102556 | 19.44° C | 99% | 1012 hPa | 0 mm | - | 20 W/m² | - |
| 1778102252 | 19.44° C | 99% | 1011.8 hPa | 0 mm | - | 19 W/m² | - |
| 1778101948 | 19.44° C | 99% | 1011.8 hPa | 0 mm | - | 33 W/m² | - |
| 1778101645 | 19.44° C | 99% | 1011.9 hPa | 0 mm | - | 30 W/m² | - |
| 1778101342 | 19.44° C | 99% | 1011.4 hPa | 0 mm | - | 73 W/m² | - |
| 1778101039 | 19.44° C | 99% | 1011.4 hPa | 0 mm | - | 66 W/m² | - |
| 1778100734 | 19.44° C | 98% | 1011 hPa | 1.27 mm | - | 77 W/m² | - |
| 1778100432 | 19.44° C | 98% | 1011.2 hPa | 1.27 mm | - | 139 W/m² | - |
| 1778100129 | 19.44° C | 97% | 1011 hPa | 1.78 mm | - | 184 W/m² | - |
| 1778099827 | 19.44° C | 97% | 1011.1 hPa | 1.78 mm | - | 70 W/m² | - |
| 1778099524 | 20° C | 96% | 1010.8 hPa | 0 mm | - | 88 W/m² | - |
| 1778099222 | 20° C | 96% | 1011.5 hPa | 0 mm | - | 130 W/m² | - |
| 1778098917 | 20° C | 96% | 1011.6 hPa | 0 mm | - | 132 W/m² | - |
| 1778098615 | 20° C | 96% | 1011.6 hPa | 0 mm | - | 119 W/m² | - |
| 1778098311 | 20° C | 95% | 1012 hPa | 0 mm | - | 117 W/m² | - |
| 1778098008 | 20° C | 95% | 1012.2 hPa | 0 mm | - | 134 W/m² | - |
| 1778097704 | 20° C | 95% | 1012.2 hPa | 0 mm | - | 123 W/m² | - |
| 1778097401 | 20° C | 95% | 1012.2 hPa | 0 mm | - | 81 W/m² | - |
| 1778097097 | 20° C | 94% | 1012.9 hPa | 0 mm | - | 117 W/m² | - |
| 1778096795 | 20° C | 94% | 1012.6 hPa | 0 mm | - | 117 W/m² | - |
* Rain latest hour (hover to see other rain measurements)
** Current wind speed in m/s (hover to see current wind gust speed)